Regional Weather Roundup
Issued by NWS

Home | Current Version | Previous Version | Text Only | Print | Product List | Glossary On
Versions: 1 2 3 4 5 6 7 8 9 10 11 12 13 14 15 16 17 18 19 20 21 22 23 24 25 26 27
000
ASUS45 KSLC 281810
RWRUT

UTAH REGIONAL WEATHER ROUNDUP
NATIONAL WEATHER SERVICE SALT LAKE CITY UT
1200 PM MDT SAT MAY 28 2016

UTZ001>011-023>025-281900-

NORTHERN UTAH

CITY           SKY/WX    TMP DP  RH WIND       PRES   REMARKS
BRIGHAM CITY     N/A     64  38  38 N3        30.06S
HILL AFB       MOSUNNY   63  46  54 VRB2      30.06R
LOGAN          SUNNY     61  42  49 NW6       30.06S
OGDEN          SUNNY     65  43  44 W6        30.05R
PROVO AIRPORT  MOSUNNY   64  41  42 W9        30.05S
SALT LAKE CITY MOSUNNY   67  42  40 VRB6      30.04S
VERNAL         MOSUNNY   64  40  41 VRB5      30.07F
WENDOVER       SUNNY     63  34  34 SE6       30.06S
HEBER CITY     MOSUNNY   64  36  34 SW7       30.05F
WEST JORDAN    SUNNY     64  43  45 CALM      30.05S

$$

UTZ012>022-026-027-281900-

SOUTHERN/CENTRAL UTAH

CITY           SKY/WX    TMP DP  RH WIND       PRES   REMARKS
BLANDING       MOSUNNY   68  31  25 SE5       30.18S
BRYCE CANYON   CLOUDY    56  30  37 S6        30.18R
CEDAR CITY     MOSUNNY   72  31  22 VRB6      30.04S
DELTA          SUNNY     68  34  28 CALM      30.04S
HANKSVILLE     SUNNY     73  34  23 S8        30.05S
MILFORD        SUNNY     72  33  24 VRB3      30.02F
MOAB/CYNLANDS  SUNNY     73  36  25 VRB3      30.03S
PRICE          MOSUNNY   66  32  28 E6        30.09S
ST GEORGE      PTCLDY    79  36  21 W3        29.94F
KANAB          SUNNY     75  28  17 NW6       30.06S

$$

REGIONAL REPORTS     COLORADO/ARIZONA

CITY           SKY/WX    TMP DP  RH WIND       PRES   REMARKS
CRAIG, CO      CLOUDY    63  38  39 W6        30.10F
GRAND JUNCTION SUNNY     67  37  33 CALM      30.06F
RIFLE          SUNNY     67  35  30 N6        30.08F
MONTROSE       SUNNY     66  31  27 SE5       30.12F
CORTEZ         SUNNY     71  30  21 MISG      30.10S
PAGE, AZ       SUNNY     76  32  20 N6        30.01S
GRAND CANYON   CLOUDY    67  26  21 NE8       30.12S
KINGMAN        MOSUNNY   81  30  15 SW14      29.94S
FLAGSTAFF      MOSUNNY   65  25  22 MISG      30.14R

$$

REGIONAL REPORTS    NEVADA/IDAHO/WYOMING

CITY           SKY/WX    TMP DP  RH WIND       PRES   REMARKS
LAS VEGAS, NV  PTSUNNY   85  33  15 N7        29.83S
ELY            MOSUNNY   62  36  37 VRB3      30.07F
ELKO           SUNNY     63  31  30 CALM      30.06F
POCATELLO, ID  SUNNY     61  26  26 W17       30.09R
BURLEY         SUNNY     60  31  33 W9        30.08S
EVANSTON, WY   CLOUDY    56  35  45 W13       30.11S
ROCK SPRINGS   MOSUNNY   59  33  37 W16       30.10S
KEMMERER         N/A     55  36  47 W16G24    30.13R

$$




USA.gov is the U.S. government's official web portal to all federal, state and local government web resources and services.